Regional Weather Roundup
Issued by NWS Jackson, KY

Home | Current Version | Previous Version | Text Only | Print | Product List | Glossary On
Versions: 1 2 3 4 5 6 7 8 9 10 11 12 13 14 15 16 17 18 19 20 21 22 23 24 25 26 27 28 29 30 31 32 33 34 35 36 37 38 39 40 41 42 43 44 45 46 47 48 49 50
000
ASUS43 KJKL 040910
RWRJKL

EAST KENTUCKY HOURLY WEATHER ROUNDUP
NATIONAL WEATHER SERVICE JACKSON KY
500 AM EDT SAT JUL 04 2015

NOTE: "FAIR" INDICATES FEW OR NO CLOUDS BELOW 12,000 FEET WITH
NO SIGNIFICANT WEATHER AND/OR OBSTRUCTIONS TO VISIBILITY.

* THESE REPORTS ARE NOT UNDER NWS QUALITY CONTROL AND MAY NOT
  REPORT WEATHER SUCH AS PRECIPITATION AND FOG.

KYZ079-080-083-085-087-088-110-112-115-119-120-041000
...EASTERN KENTUCKY...

CITY           SKY/WX    TMP DP  RH WIND       PRES   REMARKS
JACKSON        CLOUDY    67  65  93 VRB3      29.94R
LONDON         CLOUDY    69  65  86 SW6       29.95R
SOMERSET*      CLOUDY    68  68 100 SW5       29.96R
MONTICELLO*    CLOUDY    70  70 100 CALM      29.97R
MIDDLESBORO*   CLOUDY    67  67  98 CALM      29.97R
HARLAN APT*      N/A     68  68 100 NW5       29.97R
HAZARD APT*    CLOUDY    68  68 100 SW3       29.95R
BLACK MTN*       N/A     61  61 100 VRB2        N/A
PIKEVILLE APT* CLOUDY    66  66 100 SW5       29.94R
BIG SANDY*     CLOUDY    68  67  98 SW3       29.92S
MOREHEAD APT*  FOG       68  66  94 CALM      29.94R VSB 1
$$

KYZ035-036-041-042-044-050-067-078-099-041000
...CENTRAL KENTUCKY...

CITY           SKY/WX    TMP DP  RH WIND       PRES   REMARKS
MT STERLING*   LGT RAIN  66  66 100 N3        29.94R
FLEMING/MASON* CLOUDY    64  64 100 CALM      29.94R FOG
DANVILLE*      CLOUDY    66  66 100 CALM      29.95S
RICHMOND*      CLOUDY    68  64  88 W5        29.93S
LEXINGTON      CLOUDY    68  66  93 N5        29.92S FOG
FRANKFORT      CLOUDY    68  65  90 CALM      29.91F FOG
$$

KYZ091>093-OHZ055-061-077-WVZ005-015-034-035-042-041000
...SOUTHERN OHIO/WEST VIRGINIA...

CITY           SKY/WX    TMP DP  RH WIND       PRES   REMARKS
COVINGTON      CLOUDY    68  64  87 N5        29.92S
COLUMBUS       CLEAR     61  57  87 CALM      29.91R
DAYTON         PTCLDY    61  59  93 NW3       29.94S
WILMINGTON     CLEAR     62  60  93 N7        29.92S FOG
HUNTINGTON     CLOUDY    66  66 100 N5        29.89R FOG
CHARLESTON     LGT RAIN  69  66  90 SW8       29.89R
PINEVILLE*     CLOUDY    67  67 100 MISG      29.99R
BECKLEY        CLOUDY    65  62  90 SW5       29.97R
BLUEFIELD      CLOUDY    66  61  84 W8        29.99R
$$

VAZ002-007-008-TNZ017-027-036-066-071-041000
...SOUTHWEST VIRGINIA/EAST TENNESSEE...

CITY           SKY/WX    TMP DP  RH WIND       PRES   REMARKS
WISE*          CLOUDY    64  64 100 SW8       30.01S
JONESVILLE*      N/A    N/A N/A N/A MISG        N/A
ABINGDON*      CLOUDY    68  67  99 W8        29.99S
BRISTOL        CLOUDY    69  65  86 SW9       29.97R
KNOXVILLE      LGT RAIN  68  66  93 SW14      29.96R
OAK RIDGE      CLOUDY    70  67  90 VRB3      29.97S
CROSSVILLE     CLOUDY    68  64  87 VRB5      30.00R
NASHVILLE      PTCLDY    69  69 100 S3        29.93R
$$

...KEY TO REMARKS...
VSB - VISIBILITY IN MILES
WCI - WIND CHILL INDEX
HX  - HEAT INDEX

$$


USA.gov is the U.S. government's official web portal to all federal, state and local government web resources and services.